Location: Chippewa Lake
(41.0698°N, 81.9010°W)
Time: 12:05:11
(UTC+00:00)

Cosmos 2084 - Pass Details

Date: 27 September 2021
Orbit: 529 x 652 km, 62.8° (Epoch: 20 October)

Event Time Altitude Azimuth Distance (km) Brightness Sun altitude
Exits shadow 09:52:39 24° 206° (SSW) 1,139 4.6 -17.2°
Maximum altitude 09:54:59 75° 124° (SE) 557 3.4 -16.8°
Drops below altitude 10° 09:59:03 10° 39° (NE) 1,817 6.7 -16.1°
Sets 10:01:18 0° 37° (NE) 2,730 7.7 -15.7°
